Year,Month,Day,Hour,Minute,Value (Times are PST for temperature in C)
2018,08,22,00,00,17.10
2018,08,22,00,01,17.10
2018,08,22,00,02,17.10
2018,08,22,00,03,17.10
2018,08,22,00,04,17.10
2018,08,22,00,05,17.00
2018,08,22,00,06,17.00
2018,08,22,00,07,17.00
2018,08,22,00,08,17.00
2018,08,22,00,09,17.00
2018,08,22,00,10,16.90
2018,08,22,00,11,16.90
2018,08,22,00,12,16.90
2018,08,22,00,13,16.90
2018,08,22,00,14,16.90
2018,08,22,00,15,16.90
2018,08,22,00,16,16.90
2018,08,22,00,17,16.80
2018,08,22,00,18,16.80
2018,08,22,00,19,16.80
2018,08,22,00,20,16.80
2018,08,22,00,21,16.80
2018,08,22,00,22,16.80
2018,08,22,00,23,16.70
2018,08,22,00,24,16.70
2018,08,22,00,25,16.70
2018,08,22,00,26,16.70
2018,08,22,00,27,16.70
2018,08,22,00,28,16.70
2018,08,22,00,29,16.70
2018,08,22,00,30,16.70
2018,08,22,00,31,16.70
2018,08,22,00,32,16.70
2018,08,22,00,33,16.70
2018,08,22,00,34,16.70
2018,08,22,00,35,16.70
2018,08,22,00,36,16.70
2018,08,22,00,37,16.70
2018,08,22,00,38,16.60
2018,08,22,00,39,16.60
2018,08,22,00,40,16.60
2018,08,22,00,41,16.60
2018,08,22,00,42,16.60
2018,08,22,00,43,16.40
2018,08,22,00,44,16.40
2018,08,22,00,45,16.40
2018,08,22,00,46,16.40
2018,08,22,00,47,16.40
2018,08,22,00,48,16.40
2018,08,22,00,49,16.40
2018,08,22,00,50,16.40
2018,08,22,00,51,16.40
2018,08,22,00,52,16.40
2018,08,22,00,53,16.40
2018,08,22,00,54,16.40
2018,08,22,00,55,16.40
2018,08,22,00,56,16.40
2018,08,22,00,57,16.40
2018,08,22,00,58,16.40
2018,08,22,00,59,16.40
2018,08,22,01,00,16.40
2018,08,22,01,01,16.30
2018,08,22,01,02,16.30
2018,08,22,01,03,16.30
2018,08,22,01,04,16.30
2018,08,22,01,05,16.30
2018,08,22,01,06,16.30
2018,08,22,01,07,16.30
2018,08,22,01,08,16.20
2018,08,22,01,09,16.20
2018,08,22,01,10,16.20
2018,08,22,01,11,16.20
2018,08,22,01,12,16.20
2018,08,22,01,13,16.10
2018,08,22,01,14,16.10
2018,08,22,01,15,16.10
2018,08,22,01,16,16.10
2018,08,22,01,17,16.10
2018,08,22,01,18,16.10
2018,08,22,01,19,16.10
2018,08,22,01,20,16.10
2018,08,22,01,21,16.10
2018,08,22,01,22,16.10
2018,08,22,01,23,16.10
2018,08,22,01,24,16.10
2018,08,22,01,25,16.10
2018,08,22,01,26,16.10
2018,08,22,01,27,16.10
2018,08,22,01,28,16.10
2018,08,22,01,29,16.10
2018,08,22,01,30,16.10
2018,08,22,01,31,16.10
2018,08,22,01,32,16.10
2018,08,22,01,33,16.10
2018,08,22,01,34,16.10
2018,08,22,01,35,16.00
2018,08,22,01,36,15.90
2018,08,22,01,37,15.90
2018,08,22,01,38,15.90
2018,08,22,01,39,15.90
2018,08,22,01,40,15.80
2018,08,22,01,41,15.80
2018,08,22,01,42,15.80
2018,08,22,01,43,15.80
2018,08,22,01,44,15.80
2018,08,22,01,45,15.80
2018,08,22,01,46,15.80
2018,08,22,01,47,15.80
2018,08,22,01,48,15.80
2018,08,22,01,49,15.80
2018,08,22,01,50,15.80
2018,08,22,01,51,15.80
2018,08,22,01,52,15.80
2018,08,22,01,53,15.80
2018,08,22,01,54,15.70
2018,08,22,01,55,15.70
2018,08,22,01,56,15.70
2018,08,22,01,57,15.70
2018,08,22,01,58,15.70
2018,08,22,01,59,15.70
2018,08,22,02,00,15.60
2018,08,22,02,01,15.60
2018,08,22,02,02,15.60
2018,08,22,02,03,15.60
2018,08,22,02,04,15.60
2018,08,22,02,05,15.60
2018,08,22,02,06,15.50
2018,08,22,02,07,15.50
2018,08,22,02,08,15.50
2018,08,22,02,09,15.50
2018,08,22,02,10,15.50
2018,08,22,02,11,15.50
2018,08,22,02,12,15.50
2018,08,22,02,13,15.40
2018,08,22,02,14,15.40
2018,08,22,02,15,15.40
2018,08,22,02,16,15.30
2018,08,22,02,17,15.30
2018,08,22,02,18,15.30
2018,08,22,02,19,15.30
2018,08,22,02,20,15.30
2018,08,22,02,21,15.30
2018,08,22,02,22,15.30
2018,08,22,02,23,15.30
2018,08,22,02,24,15.30
2018,08,22,02,25,15.30
2018,08,22,02,26,15.30
2018,08,22,02,27,15.30
2018,08,22,02,28,15.30
2018,08,22,02,29,15.20
2018,08,22,02,30,15.20
2018,08,22,02,31,15.20
2018,08,22,02,32,15.20
2018,08,22,02,33,15.20
2018,08,22,02,34,15.20
2018,08,22,02,35,15.10
2018,08,22,02,36,15.10
2018,08,22,02,37,15.10
2018,08,22,02,38,15.10
2018,08,22,02,39,15.10
2018,08,22,02,40,15.10
2018,08,22,02,41,15.10
2018,08,22,02,42,15.10
2018,08,22,02,43,15.10
2018,08,22,02,44,15.10
2018,08,22,02,45,15.10
2018,08,22,02,46,15.10
2018,08,22,02,47,15.10
2018,08,22,02,48,15.10
2018,08,22,02,49,15.10
2018,08,22,02,50,15.10
2018,08,22,02,51,15.10
2018,08,22,02,52,15.10
2018,08,22,02,53,15.10
2018,08,22,02,54,15.10
2018,08,22,02,55,15.10
2018,08,22,02,56,15.10
2018,08,22,02,57,15.10
2018,08,22,02,58,15.10
2018,08,22,02,59,15.10
2018,08,22,03,00,15.10
2018,08,22,03,01,15.10
2018,08,22,03,02,15.10
2018,08,22,03,03,15.20
2018,08,22,03,04,15.20
2018,08,22,03,05,15.20
2018,08,22,03,06,15.20
2018,08,22,03,07,15.20
2018,08,22,03,08,15.20
2018,08,22,03,09,15.20
2018,08,22,03,10,15.20
2018,08,22,03,11,15.20
2018,08,22,03,12,15.20
2018,08,22,03,13,15.20
2018,08,22,03,14,15.20
2018,08,22,03,15,15.20
2018,08,22,03,16,15.20
2018,08,22,03,17,15.20
2018,08,22,03,18,15.20
2018,08,22,03,19,15.20
2018,08,22,03,20,15.20
2018,08,22,03,21,15.10
2018,08,22,03,22,15.10
2018,08,22,03,23,15.10
2018,08,22,03,24,15.10
2018,08,22,03,25,15.10
2018,08,22,03,26,15.10
2018,08,22,03,27,15.00
2018,08,22,03,28,15.00
2018,08,22,03,29,15.00
2018,08,22,03,30,15.00
2018,08,22,03,31,15.00
2018,08,22,03,32,14.90
2018,08,22,03,33,14.90
2018,08,22,03,34,14.90
2018,08,22,03,35,14.90
2018,08,22,03,36,14.90
2018,08,22,03,37,14.90
2018,08,22,03,38,14.90
2018,08,22,03,39,15.00
2018,08,22,03,40,15.00
2018,08,22,03,41,15.00
2018,08,22,03,42,15.00
2018,08,22,03,43,14.90
2018,08,22,03,44,14.90
2018,08,22,03,45,14.90
2018,08,22,03,46,14.90
2018,08,22,03,47,14.90
2018,08,22,03,48,14.80
2018,08,22,03,49,14.80
2018,08,22,03,50,14.80
2018,08,22,03,51,14.80
2018,08,22,03,52,14.80
2018,08,22,03,53,14.80
2018,08,22,03,54,14.80
2018,08,22,03,55,14.80
2018,08,22,03,56,14.70
2018,08,22,03,57,14.70
2018,08,22,03,58,14.70
2018,08,22,03,59,14.80
2018,08,22,04,00,14.80
2018,08,22,04,01,14.70
2018,08,22,04,02,14.70
2018,08,22,04,03,14.70
2018,08,22,04,04,14.70
2018,08,22,04,05,14.70
2018,08,22,04,06,14.70
2018,08,22,04,07,14.70
2018,08,22,04,08,14.70
2018,08,22,04,09,14.70
2018,08,22,04,10,14.70
2018,08,22,04,11,14.70
2018,08,22,04,12,14.70
2018,08,22,04,13,14.60
2018,08,22,04,14,14.60
2018,08,22,04,15,14.60
2018,08,22,04,16,14.60
2018,08,22,04,17,14.60
2018,08,22,04,18,14.60
2018,08,22,04,19,14.50
2018,08,22,04,20,14.50
2018,08,22,04,21,14.60
2018,08,22,04,22,14.60
2018,08,22,04,23,14.60
2018,08,22,04,24,14.60
2018,08,22,04,25,14.60
2018,08,22,04,26,14.60
2018,08,22,04,27,14.50
2018,08,22,04,28,14.50
2018,08,22,04,29,14.50
2018,08,22,04,30,14.50
2018,08,22,04,31,14.50
2018,08,22,04,32,14.50
2018,08,22,04,33,14.40
2018,08,22,04,34,14.40
2018,08,22,04,35,14.40
2018,08,22,04,36,14.40
2018,08,22,04,37,14.40
2018,08,22,04,38,14.30
2018,08,22,04,39,14.30
2018,08,22,04,40,14.30
2018,08,22,04,41,14.30
2018,08,22,04,42,14.30
2018,08,22,04,43,14.30
2018,08,22,04,44,14.20
2018,08,22,04,45,14.20
2018,08,22,04,46,14.20
2018,08,22,04,47,14.20
2018,08,22,04,48,14.20
2018,08,22,04,49,14.20
2018,08,22,04,50,14.20
2018,08,22,04,51,14.20
2018,08,22,04,52,14.20
2018,08,22,04,53,14.20
2018,08,22,04,54,14.20
2018,08,22,04,55,14.20
2018,08,22,04,56,14.20
2018,08,22,04,57,14.20
2018,08,22,04,58,14.10
2018,08,22,04,59,14.10
2018,08,22,05,00,14.10
2018,08,22,05,01,14.10
2018,08,22,05,02,14.10
2018,08,22,05,03,14.00
2018,08,22,05,04,14.00
2018,08,22,05,05,14.00
2018,08,22,05,06,13.90
2018,08,22,05,07,13.90
2018,08,22,05,08,13.90
2018,08,22,05,09,13.90
2018,08,22,05,10,13.90
2018,08,22,05,11,13.80
2018,08,22,05,12,13.80
2018,08,22,05,13,13.80
2018,08,22,05,14,13.70
2018,08,22,05,15,13.70
2018,08,22,05,16,13.70
2018,08,22,05,17,13.70
2018,08,22,05,18,13.70
2018,08,22,05,19,13.70
2018,08,22,05,20,13.70
2018,08,22,05,21,13.60
2018,08,22,05,22,13.60
2018,08,22,05,23,13.60
2018,08,22,05,24,13.60
2018,08,22,05,25,13.60
2018,08,22,05,26,13.60
2018,08,22,05,27,13.60
2018,08,22,05,28,13.60
2018,08,22,05,29,13.60
2018,08,22,05,30,13.60
2018,08,22,05,31,13.50
2018,08,22,05,32,13.50
2018,08,22,05,33,13.50
2018,08,22,05,34,13.50
2018,08,22,05,35,13.50
2018,08,22,05,36,13.50
2018,08,22,05,37,13.50
2018,08,22,05,38,13.50
2018,08,22,05,39,13.50
2018,08,22,05,40,13.50
2018,08,22,05,41,13.50
2018,08,22,05,42,13.50
2018,08,22,05,43,13.40
2018,08,22,05,44,13.40
2018,08,22,05,45,13.40
2018,08,22,05,46,13.40
2018,08,22,05,47,13.40
2018,08,22,05,48,13.40
2018,08,22,05,49,13.40
2018,08,22,05,50,13.40
2018,08,22,05,51,13.30
2018,08,22,05,52,13.30
2018,08,22,05,53,13.30
2018,08,22,05,54,13.30
2018,08,22,05,55,13.30
2018,08,22,05,56,13.30
2018,08,22,05,57,13.30
2018,08,22,05,58,13.30
2018,08,22,05,59,13.30
2018,08,22,06,00,13.30
2018,08,22,06,01,13.30
2018,08,22,06,02,13.30
2018,08,22,06,03,13.30
2018,08,22,06,04,13.20
2018,08,22,06,05,13.20
2018,08,22,06,06,13.20
2018,08,22,06,07,13.20
2018,08,22,06,08,13.20
2018,08,22,06,09,13.20
2018,08,22,06,10,13.20
2018,08,22,06,11,13.20
2018,08,22,06,12,13.10
2018,08,22,06,13,13.10
2018,08,22,06,14,13.10
2018,08,22,06,15,13.10
2018,08,22,06,16,13.10
2018,08,22,06,17,13.10
2018,08,22,06,18,13.10
2018,08,22,06,19,13.10
2018,08,22,06,20,13.10
2018,08,22,06,21,13.10
2018,08,22,06,22,13.10
2018,08,22,06,23,13.10
2018,08,22,06,24,13.10
2018,08,22,06,25,13.10
2018,08,22,06,26,13.10
2018,08,22,06,27,13.10
2018,08,22,06,28,13.20
2018,08,22,06,29,13.20
2018,08,22,06,30,13.20
2018,08,22,06,31,13.20
2018,08,22,06,32,13.20
2018,08,22,06,33,13.20
2018,08,22,06,34,13.20
2018,08,22,06,35,13.20
2018,08,22,06,36,13.20
2018,08,22,06,37,13.10
2018,08,22,06,38,13.10
2018,08,22,06,39,13.10
2018,08,22,06,40,13.10
2018,08,22,06,41,13.10
2018,08,22,06,42,13.10
2018,08,22,06,43,13.20
2018,08,22,06,44,13.20
2018,08,22,06,45,13.20
2018,08,22,06,46,13.20
2018,08,22,06,47,13.20
2018,08,22,06,48,13.20
2018,08,22,06,49,13.20
2018,08,22,06,50,13.20
2018,08,22,06,51,13.20
2018,08,22,06,52,13.20
2018,08,22,06,53,13.20
2018,08,22,06,54,13.20
2018,08,22,06,55,13.20
2018,08,22,06,56,13.20
2018,08,22,06,57,13.30
2018,08,22,06,58,13.30
2018,08,22,06,59,13.30
2018,08,22,07,00,13.30
2018,08,22,07,01,13.30
2018,08,22,07,02,13.30
2018,08,22,07,03,13.30
2018,08,22,07,04,13.30
2018,08,22,07,05,13.30
2018,08,22,07,06,13.30
2018,08,22,07,07,13.30
2018,08,22,07,08,13.30
2018,08,22,07,09,13.30
2018,08,22,07,10,13.30
2018,08,22,07,11,13.30
2018,08,22,07,12,13.30
2018,08,22,07,13,13.30
2018,08,22,07,14,13.30
2018,08,22,07,15,13.30
2018,08,22,07,16,13.30
2018,08,22,07,17,13.30
2018,08,22,07,18,13.30
2018,08,22,07,19,13.30
2018,08,22,07,20,13.30
2018,08,22,07,21,13.30
2018,08,22,07,22,13.30
2018,08,22,07,23,13.30
2018,08,22,07,24,13.30
2018,08,22,07,25,13.40
2018,08,22,07,26,13.40
2018,08,22,07,27,13.40
2018,08,22,07,28,13.50
2018,08,22,07,29,13.50
2018,08,22,07,30,13.50
2018,08,22,07,31,13.60
2018,08,22,07,32,13.60
2018,08,22,07,33,13.60
2018,08,22,07,34,13.70
2018,08,22,07,35,13.70
2018,08,22,07,36,13.70
2018,08,22,07,37,13.70
2018,08,22,07,38,13.70
2018,08,22,07,39,13.70
2018,08,22,07,40,13.80
2018,08,22,07,41,13.80
2018,08,22,07,42,13.80
2018,08,22,07,43,13.90
2018,08,22,07,44,13.90
2018,08,22,07,45,13.90
2018,08,22,07,46,14.00
2018,08,22,07,47,14.00
2018,08,22,07,48,14.00
2018,08,22,07,49,14.10
2018,08,22,07,50,14.10
2018,08,22,07,51,14.20
2018,08,22,07,52,14.20
2018,08,22,07,53,14.30
2018,08,22,07,54,14.30
2018,08,22,07,55,14.40
2018,08,22,07,56,14.50
2018,08,22,07,57,14.50
2018,08,22,07,58,14.60
2018,08,22,07,59,14.60
2018,08,22,08,00,14.60
2018,08,22,08,01,14.70
2018,08,22,08,02,14.70
2018,08,22,08,03,14.80
2018,08,22,08,04,14.80
2018,08,22,08,05,14.80
2018,08,22,08,06,14.80
2018,08,22,08,07,14.90
2018,08,22,08,08,14.90
2018,08,22,08,09,15.00
2018,08,22,08,10,15.00
2018,08,22,08,11,15.10
2018,08,22,08,12,15.10
2018,08,22,08,13,15.20
2018,08,22,08,14,15.20
2018,08,22,08,15,15.30
2018,08,22,08,16,15.30
2018,08,22,08,17,15.30
2018,08,22,08,18,15.40
2018,08,22,08,19,15.50
2018,08,22,08,20,15.50
2018,08,22,08,21,15.60
2018,08,22,08,22,15.70
2018,08,22,08,23,15.70
2018,08,22,08,24,15.80
2018,08,22,08,25,15.80
2018,08,22,08,26,15.80
2018,08,22,08,27,15.80
2018,08,22,08,28,16.00
2018,08,22,08,29,16.10
2018,08,22,08,30,16.20
2018,08,22,08,31,16.20
2018,08,22,08,32,16.30
2018,08,22,08,33,16.30
2018,08,22,08,34,16.30
2018,08,22,08,35,16.30
2018,08,22,08,36,16.30
2018,08,22,08,37,16.40
2018,08,22,08,38,16.40
2018,08,22,08,39,16.40
2018,08,22,08,40,16.50
2018,08,22,08,41,16.60
2018,08,22,08,42,16.60
2018,08,22,08,43,16.70
2018,08,22,08,44,16.70
2018,08,22,08,45,16.70
2018,08,22,08,46,16.80
2018,08,22,08,47,16.80
2018,08,22,08,48,16.90
2018,08,22,08,49,16.90
2018,08,22,08,50,16.90
2018,08,22,08,51,16.90
2018,08,22,08,52,17.00
2018,08,22,08,53,17.00
2018,08,22,08,54,17.00
2018,08,22,08,55,17.10
2018,08,22,08,56,17.20
2018,08,22,08,57,17.30
2018,08,22,08,58,17.30
2018,08,22,08,59,17.40
2018,08,22,09,00,17.50
2018,08,22,09,01,17.60
2018,08,22,09,02,17.70
2018,08,22,09,03,17.80
2018,08,22,09,04,17.90
2018,08,22,09,05,17.90
2018,08,22,09,06,18.10
2018,08,22,09,07,18.10
2018,08,22,09,08,18.20
2018,08,22,09,09,18.30
2018,08,22,09,10,18.30
2018,08,22,09,11,18.40
2018,08,22,09,12,18.50
2018,08,22,09,13,18.60
2018,08,22,09,14,18.60
2018,08,22,09,15,18.70
2018,08,22,09,16,18.80
2018,08,22,09,17,18.90
2018,08,22,09,18,18.90
2018,08,22,09,19,18.90
2018,08,22,09,20,18.90
2018,08,22,09,21,19.00
2018,08,22,09,22,19.10
2018,08,22,09,23,19.10
2018,08,22,09,24,19.10
2018,08,22,09,25,19.10
2018,08,22,09,26,19.00
2018,08,22,09,27,18.90
2018,08,22,09,28,18.70
2018,08,22,09,29,18.70
2018,08,22,09,30,18.60
2018,08,22,09,31,18.50
2018,08,22,09,32,18.40
2018,08,22,09,33,18.30
2018,08,22,09,34,18.30
2018,08,22,09,35,18.20
2018,08,22,09,36,18.20
2018,08,22,09,37,18.20
2018,08,22,09,38,18.20
2018,08,22,09,39,18.10
2018,08,22,09,40,18.10
2018,08,22,09,41,18.10
2018,08,22,09,42,18.10
2018,08,22,09,43,18.20
2018,08,22,09,44,18.20
2018,08,22,09,45,18.20
2018,08,22,09,46,18.20
2018,08,22,09,47,18.20
2018,08,22,09,48,18.20
2018,08,22,09,49,18.30
2018,08,22,09,50,18.30
2018,08,22,09,51,18.40
2018,08,22,09,52,18.50
2018,08,22,09,53,18.50
2018,08,22,09,54,18.60
2018,08,22,09,55,18.60
2018,08,22,09,56,18.70
2018,08,22,09,57,18.70
2018,08,22,09,58,18.80
2018,08,22,09,59,18.90
2018,08,22,10,00,18.90
2018,08,22,10,01,19.10
2018,08,22,10,02,19.10
2018,08,22,10,03,19.20
2018,08,22,10,04,19.30
2018,08,22,10,05,19.40
2018,08,22,10,06,19.50
2018,08,22,10,07,19.60
2018,08,22,10,08,19.60
2018,08,22,10,09,19.70
2018,08,22,10,10,19.80
2018,08,22,10,11,19.90
2018,08,22,10,12,19.90
2018,08,22,10,13,19.90
2018,08,22,10,14,20.10
2018,08,22,10,15,20.10
2018,08,22,10,16,20.20
2018,08,22,10,17,20.20
2018,08,22,10,18,20.20
2018,08,22,10,19,20.20
2018,08,22,10,20,20.20
2018,08,22,10,21,20.30
2018,08,22,10,22,20.30
2018,08,22,10,23,20.40
2018,08,22,10,24,20.40
2018,08,22,10,25,20.50
2018,08,22,10,26,20.50
2018,08,22,10,27,20.60
2018,08,22,10,28,20.60
2018,08,22,10,29,20.70
2018,08,22,10,30,20.80
2018,08,22,10,31,20.80
2018,08,22,10,32,20.90
2018,08,22,10,33,21.00
2018,08,22,10,34,21.00
2018,08,22,10,35,21.10
2018,08,22,10,36,21.10
2018,08,22,10,37,21.10
2018,08,22,10,38,21.10
2018,08,22,10,39,21.10
2018,08,22,10,40,21.10
2018,08,22,10,41,21.10
2018,08,22,10,42,21.10
2018,08,22,10,43,21.10
2018,08,22,10,44,21.00
2018,08,22,10,45,21.00
2018,08,22,10,46,20.90
2018,08,22,10,47,20.90
2018,08,22,10,48,20.80
2018,08,22,10,49,20.80
2018,08,22,10,50,20.70
2018,08,22,10,51,20.70
2018,08,22,10,52,20.70
2018,08,22,10,53,20.70
2018,08,22,10,54,20.70
2018,08,22,10,55,20.70
2018,08,22,10,56,20.60
2018,08,22,10,57,20.60
2018,08,22,10,58,20.50
2018,08,22,10,59,20.50
2018,08,22,11,00,20.50
2018,08,22,11,01,20.50
2018,08,22,11,02,20.50
2018,08,22,11,03,20.50
2018,08,22,11,04,20.40
2018,08,22,11,05,20.30
2018,08,22,11,06,20.30
2018,08,22,11,07,20.20
2018,08,22,11,08,20.20
2018,08,22,11,09,20.20
2018,08,22,11,10,20.20
2018,08,22,11,11,20.20
2018,08,22,11,12,20.10
2018,08,22,11,13,20.10
2018,08,22,11,14,20.10
2018,08,22,11,15,20.00
2018,08,22,11,16,19.90
2018,08,22,11,17,19.90
2018,08,22,11,18,20.00
2018,08,22,11,19,20.10
2018,08,22,11,20,20.20
2018,08,22,11,21,20.20
2018,08,22,11,22,20.20
2018,08,22,11,23,20.10
2018,08,22,11,24,20.00
2018,08,22,11,25,19.90
2018,08,22,11,26,19.90
2018,08,22,11,27,19.90
2018,08,22,11,28,19.90
2018,08,22,11,29,19.90
2018,08,22,11,30,19.90
2018,08,22,11,31,19.90
2018,08,22,11,32,19.90
2018,08,22,11,33,19.90
2018,08,22,11,34,19.80
2018,08,22,11,35,19.80
2018,08,22,11,36,19.70
2018,08,22,11,37,19.70
2018,08,22,11,38,19.60
2018,08,22,11,39,19.60
2018,08,22,11,40,19.60
2018,08,22,11,41,19.70
2018,08,22,11,42,19.70
2018,08,22,11,43,19.70
2018,08,22,11,44,19.70
2018,08,22,11,45,19.70
2018,08,22,11,46,19.80
2018,08,22,11,47,19.80
2018,08,22,11,48,19.80
2018,08,22,11,49,19.90
2018,08,22,11,50,19.90
2018,08,22,11,51,20.10
2018,08,22,11,52,20.20
2018,08,22,11,53,20.20
2018,08,22,11,54,20.20
2018,08,22,11,55,20.30
2018,08,22,11,56,20.30
2018,08,22,11,57,20.30
2018,08,22,11,58,20.20
2018,08,22,11,59,20.10
2018,08,22,12,00,19.90
2018,08,22,12,01,19.90
2018,08,22,12,02,19.90
2018,08,22,12,03,19.90
2018,08,22,12,04,19.80
2018,08,22,12,05,19.80
2018,08,22,12,06,19.80
2018,08,22,12,07,19.80
2018,08,22,12,08,19.70
2018,08,22,12,09,19.70
2018,08,22,12,10,19.70
2018,08,22,12,11,19.70
2018,08,22,12,12,19.80
2018,08,22,12,13,19.80
2018,08,22,12,14,19.80
2018,08,22,12,15,19.90
2018,08,22,12,16,19.90
2018,08,22,12,17,19.90
2018,08,22,12,18,19.90
2018,08,22,12,19,19.90
2018,08,22,12,20,20.00
2018,08,22,12,21,20.10
2018,08,22,12,22,20.10
2018,08,22,12,23,20.20
2018,08,22,12,24,20.30
2018,08,22,12,25,20.50
2018,08,22,12,26,20.60
2018,08,22,12,27,20.60
2018,08,22,12,28,20.60
2018,08,22,12,29,20.60
2018,08,22,12,30,20.70
2018,08,22,12,31,20.70
2018,08,22,12,32,20.70
2018,08,22,12,33,20.80
2018,08,22,12,34,20.80
2018,08,22,12,35,20.80
2018,08,22,12,36,20.90
2018,08,22,12,37,20.90
2018,08,22,12,38,21.00
2018,08,22,12,39,21.00
2018,08,22,12,40,21.00
2018,08,22,12,41,21.10
2018,08,22,12,42,21.10
2018,08,22,12,43,21.20
2018,08,22,12,44,21.20
2018,08,22,12,45,21.30
2018,08,22,12,46,21.30
2018,08,22,12,47,21.30
2018,08,22,12,48,21.50
2018,08,22,12,49,21.60
2018,08,22,12,50,21.60
2018,08,22,12,51,21.70
2018,08,22,12,52,21.80
2018,08,22,12,53,21.90
2018,08,22,12,54,22.00
2018,08,22,12,55,22.00
2018,08,22,12,56,22.00
2018,08,22,12,57,22.00
2018,08,22,12,58,22.10
2018,08,22,12,59,22.10
2018,08,22,13,00,22.20
2018,08,22,13,01,22.20
2018,08,22,13,02,22.30
2018,08,22,13,03,22.30
2018,08,22,13,04,22.30
2018,08,22,13,05,22.30
2018,08,22,13,06,22.30
2018,08,22,13,07,22.40
2018,08,22,13,08,22.50
2018,08,22,13,09,22.70
2018,08,22,13,10,22.80
2018,08,22,13,11,22.90
2018,08,22,13,12,23.00
2018,08,22,13,13,23.10
2018,08,22,13,14,23.10
2018,08,22,13,15,23.10
2018,08,22,13,16,23.10
2018,08,22,13,17,23.20
2018,08,22,13,18,23.30
2018,08,22,13,19,23.30
2018,08,22,13,20,23.30
2018,08,22,13,21,23.30
2018,08,22,13,22,23.30
2018,08,22,13,23,23.30
2018,08,22,13,24,23.30
2018,08,22,13,25,23.30
2018,08,22,13,26,23.20
2018,08,22,13,27,23.10
2018,08,22,13,28,23.20
2018,08,22,13,29,23.20
2018,08,22,13,30,23.30
2018,08,22,13,31,23.30
2018,08,22,13,32,23.40
2018,08,22,13,33,23.50
2018,08,22,13,34,23.60
2018,08,22,13,35,23.70
2018,08,22,13,36,23.80
2018,08,22,13,37,23.90
2018,08,22,13,38,24.00
2018,08,22,13,39,24.20
2018,08,22,13,40,24.30
2018,08,22,13,41,24.40
2018,08,22,13,42,24.40
2018,08,22,13,43,24.30
2018,08,22,13,44,24.20
2018,08,22,13,45,24.10
2018,08,22,13,46,24.20
2018,08,22,13,47,24.20
2018,08,22,13,48,24.10
2018,08,22,13,49,24.10
2018,08,22,13,50,24.20
2018,08,22,13,51,24.30
2018,08,22,13,52,24.30
2018,08,22,13,53,24.40
2018,08,22,13,54,24.30
2018,08,22,13,55,24.30
2018,08,22,13,56,24.40
2018,08,22,13,57,24.50
2018,08,22,13,58,24.60
2018,08,22,13,59,24.70
2018,08,22,14,00,24.70
2018,08,22,14,01,24.80
2018,08,22,14,02,24.90
2018,08,22,14,03,24.90
2018,08,22,14,04,25.00
2018,08,22,14,05,25.10
2018,08,22,14,06,25.10
2018,08,22,14,07,25.10
2018,08,22,14,08,25.10
2018,08,22,14,09,25.10
2018,08,22,14,10,25.10
2018,08,22,14,11,25.20
2018,08,22,14,12,25.20
2018,08,22,14,13,25.10
2018,08,22,14,14,25.00
2018,08,22,14,15,25.00
2018,08,22,14,16,25.10
2018,08,22,14,17,25.20
2018,08,22,14,18,25.20
2018,08,22,14,19,25.20
2018,08,22,14,20,25.10
2018,08,22,14,21,25.10
2018,08,22,14,22,25.10
2018,08,22,14,23,25.20
2018,08,22,14,24,25.30
2018,08,22,14,25,25.40
2018,08,22,14,26,25.40
2018,08,22,14,27,25.50
2018,08,22,14,28,25.50
2018,08,22,14,29,25.40
2018,08,22,14,30,25.40
2018,08,22,14,31,25.20
2018,08,22,14,32,25.10
2018,08,22,14,33,25.00
2018,08,22,14,34,24.90
2018,08,22,14,35,24.80
2018,08,22,14,36,24.80
2018,08,22,14,37,24.80
2018,08,22,14,38,24.80
2018,08,22,14,39,24.80
2018,08,22,14,40,24.90
2018,08,22,14,41,24.90
2018,08,22,14,42,25.10
2018,08,22,14,43,25.00
2018,08,22,14,44,25.00
2018,08,22,14,45,25.00
2018,08,22,14,46,25.00
2018,08,22,14,47,25.00
2018,08,22,14,48,25.00
2018,08,22,14,49,24.90
2018,08,22,14,50,24.90
2018,08,22,14,51,24.90
2018,08,22,14,52,24.90
2018,08,22,14,53,24.90
2018,08,22,14,54,25.00
2018,08,22,14,55,25.00
2018,08,22,14,56,25.10
2018,08,22,14,57,25.10
2018,08,22,14,58,25.20
2018,08,22,14,59,25.30
2018,08,22,15,00,25.40
2018,08,22,15,01,25.40
2018,08,22,15,02,25.50
2018,08,22,15,03,25.60
2018,08,22,15,04,25.60
2018,08,22,15,05,25.60
2018,08,22,15,06,25.60
2018,08,22,15,07,25.70
2018,08,22,15,08,25.70
2018,08,22,15,09,25.80
2018,08,22,15,10,25.80
2018,08,22,15,11,25.90
2018,08,22,15,12,25.90
2018,08,22,15,13,26.00
2018,08,22,15,14,26.00
2018,08,22,15,15,26.10
2018,08,22,15,16,26.10
2018,08,22,15,17,26.20
2018,08,22,15,18,26.20
2018,08,22,15,19,26.20
2018,08,22,15,20,26.20
2018,08,22,15,21,26.30
2018,08,22,15,22,26.40
2018,08,22,15,23,26.40
2018,08,22,15,24,26.40
2018,08,22,15,25,26.40
2018,08,22,15,26,26.40
2018,08,22,15,27,26.30
2018,08,22,15,28,26.20
2018,08,22,15,29,26.20
2018,08,22,15,30,26.10
2018,08,22,15,31,26.10
2018,08,22,15,32,25.90
2018,08,22,15,33,25.80
2018,08,22,15,34,25.80
2018,08,22,15,35,25.60
2018,08,22,15,36,25.50
2018,08,22,15,37,25.50
2018,08,22,15,38,25.50
2018,08,22,15,39,25.60
2018,08,22,15,40,25.60
2018,08,22,15,41,25.70
2018,08,22,15,42,25.70
2018,08,22,15,43,25.70
2018,08,22,15,44,25.80
2018,08,22,15,45,25.80
2018,08,22,15,46,25.90
2018,08,22,15,47,25.90
2018,08,22,15,48,26.00
2018,08,22,15,49,26.00
2018,08,22,15,50,25.90
2018,08,22,15,51,25.90
2018,08,22,15,52,25.90
2018,08,22,15,53,26.00
2018,08,22,15,54,26.00
2018,08,22,15,55,26.00
2018,08,22,15,56,26.00
2018,08,22,15,57,26.00
2018,08,22,15,58,26.00
2018,08,22,15,59,26.00
2018,08,22,16,00,25.90
2018,08,22,16,01,25.90
2018,08,22,16,02,25.80
2018,08,22,16,03,25.70
2018,08,22,16,04,25.60
2018,08,22,16,05,25.60
2018,08,22,16,06,25.60
2018,08,22,16,07,25.50
2018,08,22,16,08,25.50
2018,08,22,16,09,25.60
2018,08,22,16,10,25.60
2018,08,22,16,11,25.70
2018,08,22,16,12,25.70
2018,08,22,16,13,25.80
2018,08,22,16,14,25.80
2018,08,22,16,15,25.80
2018,08,22,16,16,25.80
2018,08,22,16,17,25.80
2018,08,22,16,18,25.80
2018,08,22,16,19,25.80
2018,08,22,16,20,25.90
2018,08,22,16,21,25.90
2018,08,22,16,22,25.90
2018,08,22,16,23,25.90
2018,08,22,16,24,25.90
2018,08,22,16,25,25.80
2018,08,22,16,26,25.80
2018,08,22,16,27,25.70
2018,08,22,16,28,25.70
2018,08,22,16,29,25.60
2018,08,22,16,30,25.60
2018,08,22,16,31,25.60
2018,08,22,16,32,25.50
2018,08,22,16,33,25.50
2018,08,22,16,34,25.50
2018,08,22,16,35,25.50
2018,08,22,16,36,25.50
2018,08,22,16,37,25.40
2018,08,22,16,38,25.40
2018,08,22,16,39,25.40
2018,08,22,16,40,25.40
2018,08,22,16,41,25.30
2018,08,22,16,42,25.20
2018,08,22,16,43,25.10
2018,08,22,16,44,25.00
2018,08,22,16,45,24.90
2018,08,22,16,46,24.80
2018,08,22,16,47,24.80
2018,08,22,16,48,24.80
2018,08,22,16,49,24.80
2018,08,22,16,50,24.70
2018,08,22,16,51,24.50
2018,08,22,16,52,24.30
2018,08,22,16,53,24.20
2018,08,22,16,54,24.10
2018,08,22,16,55,23.90
2018,08,22,16,56,23.80
2018,08,22,16,57,23.70
2018,08,22,16,58,23.50
2018,08,22,16,59,23.40
2018,08,22,17,00,23.10
2018,08,22,17,01,22.90
2018,08,22,17,02,22.60
2018,08,22,17,03,22.40
2018,08,22,17,04,22.20
2018,08,22,17,05,22.10
2018,08,22,17,06,22.00
2018,08,22,17,07,21.90
2018,08,22,17,08,21.70
2018,08,22,17,09,21.60
2018,08,22,17,10,21.60
2018,08,22,17,11,21.60
2018,08,22,17,12,21.60
2018,08,22,17,13,21.40
2018,08,22,17,14,21.30
2018,08,22,17,15,21.10
2018,08,22,17,16,20.90
2018,08,22,17,17,20.80
2018,08,22,17,18,20.60
2018,08,22,17,19,20.50